This demonstration page uses our WeatherBlox Daily Observations layout. Learn more.

Left ArrowRight Arrow

39.92423, -83.80882

Hourly Observations for November 17, 2020

Temp ( °F °C ) Dew Point ( °F °C ) Humidity (%) Winds ( mph kmh ) Pressure ( in mb ) Visibility ( mi km ) Precip ( " mm )
12:56 am 00:56 Clear 43 6.1 29 -1.7 58 58 W 15 24 30.03 1017 10 16 N/A
1:56 am 01:56 Clear 42 5.6 31 -0.6 65 65 W 13 20 30.04 1017 10 16 N/A
2:56 am 02:56 Mostly Cloudy 43 6.1 33 0.6 68 68 W 16 26 30.06 1018 10 16 N/A
3:56 am 03:56 Cloudy 42 5.6 33 0.6 71 71 WNW 17 28 30.08 1019 10 16 N/A
4:56 am 04:56 Cloudy 41 5 34 1.1 76 76 WNW 17 28 30.11 1020 10 16 N/A
5:13 am 05:13 Cloudy 41 5 34 1 76 76 WNW 18 30 30.14 1021 10 16 N/A
5:39 am 05:39 Cloudy 41 5 32 undefined 70 70 NW 23 37 30.15 1021 10 16 N/A
5:56 am 05:56 Cloudy 41 5 31 -0.6 67 67 NW 18 30 30.16 1021 10 16 N/A
6:49 am 06:49 Cloudy 39 4 30 -1 70 70 NW 16 26 30.23 1024 10 16 N/A
6:56 am 06:56 Cloudy 39 3.9 32 undefined 76 76 NNW 18 30 30.22 1023 10 16 N/A
7:17 am 07:17 Cloudy 37 3 30 -1 75 75 NW 16 26 30.25 1024 10 16 N/A
7:56 am 07:56 Cloudy 38 3.3 30 -1.1 73 73 NW 14 22 30.26 1025 10 16 N/A
8:20 am 08:20 Cloudy 37 3 30 -1 75 75 NW 13 20 30.28 1025 10 16 N/A
8:45 am 08:45 Mostly Cloudy 37 3 32 undefined 81 81 NW 12 19 30.30 1026 10 16 N/A
8:56 am 08:56 Cloudy 39 3.9 31 -0.6 73 73 NW 21 33 30.29 1026 10 16 N/A
9:56 am 09:56 Partly Cloudy 39 3.9 27 -2.8 62 62 NW 23 37 30.34 1027 10 16 N/A
10:56 am 10:56 Mostly Cloudy 39 3.9 24 -4.4 55 55 NW 13 20 30.37 1029 10 16 N/A
11:56 am 11:56 Mostly Cloudy 40 4.4 22 -5.6 49 49 WNW 16 26 30.39 1029 10 16 N/A
12:56 pm 12:56 Mostly Cloudy 39 3.9 22 -5.6 50 50 NW 20 31 30.40 1030 10 16 N/A
1:56 pm 13:56 Mostly Cloudy 41 5 22 -5.6 47 47 WNW 15 24 30.41 1030 10 16 N/A
2:56 pm 14:56 Partly Cloudy 41 5 21 -6.1 45 45 WNW 15 24 30.43 1031 10 16 N/A
3:56 pm 15:56 Sunny 39 3.9 20 -6.7 46 46 WNW 16 26 30.44 1031 10 16 N/A
4:56 pm 16:56 Mostly Sunny 38 3.3 20 -6.7 48 48 NW 15 24 30.46 1032 10 16 N/A
5:56 pm 17:56 Clear 34 1.1 22 -5.6 61 61 WNW 9 15 30.47 1032 10 16 N/A
6:56 pm 18:56 Clear 32 undefined 22 -5.6 66 66 W 9 15 30.48 1032 10 16 N/A
7:56 pm 19:56 Clear 32 undefined 24 -4.4 73 73 W 9 15 30.50 1033 10 16 N/A
8:56 pm 20:56 Clear 31 -0.6 24 -4.4 76 76 WNW 10 17 30.51 1033 10 16 N/A
9:56 pm 21:56 Clear 29 -1.7 24 -4.4 82 82 WNW 9 15 30.52 1034 10 16 N/A
10:56 pm 22:56 Clear 28 -2.2 24 -4.4 85 85 WNW 8 13 30.53 1034 10 16 N/A
11:56 pm 23:56 Clear 26 -3.3 23 -5 88 88 W 8 13 30.54 1034 10 16 N/A

Powered by AerisWeather